sat.trackr.live / text

‹ back to catalog

EGYPTSAT-A (MISRSAT-A)

NORAD 44047 · 2019-008A

PAYLOAD ACTIVE UNKNOWN

§ Identity

Operator
Country
EGYP
Launch date
2019-02-21
Launch site
TYMSC
Launch vehicle
Mass (kg)
RCS (m²)

External: N2YO · Heavens-Above · Gunter

§ Orbital elements

Epoch: 2026-05-25T04:07:40.662624Z

Period
97.81 min
Inclination
98.0044°
Eccentricity
0.0001157
Mean motion
14.72275068 rev/d
Perigee alt
653.0 km
Apogee alt
654.6 km
Semi-major
7,032.0 km
B*
6.4894e-5
RAAN
210.2686°
Arg perigee
85.1011°
Mean anomaly
275.0328°
Rev number
38,985

§ Raw data

EGYPTSAT-A (MISRSAT-A)1 44047U 19008A   26145.17199841  .00000361  00000+0  64894-4 0  99992 44047  98.0044 210.2686 0001157  85.1011 275.0328 14.72275068389853

JSON: /api/v1/satellites/44047 · /tle

For live sub-satellite position, see the globe view (requires WebGL).

§ Visibility from observer

Set your observer location to see the next 7 days of passes ≥ 10°. The values pass through the URL so the page stays shareable.

No JS? Fill the form by hand. The geolocation button needs JavaScript.

§ Radio — SatNOGS DB

ModeDescriptionDownlinkUplink
FM Telemetry S-Band 2.271 GHz

1 transmitter · refreshed weekly from db.satnogs.org